Location: Crescent
(42.8242°N, 73.7329°W)
Time: 05:22:06
(UTC+00:00)

Courier 1B Rocket - Visible Passes

Search period start: 18 February 2026 00:00
Search period end: 28 February 2026 00:00
Orbit: 920 x 1201 km, 28.2° (Epoch: 17 February)

Date Brightness Start Highest point End Pass type
(mag) Time Alt. Az. Time Alt. Az. Time Alt. Az.
18 Feb 6.6 00:13:45 10° SSW 00:17:35 17° SSE 00:18:58 16° SSE visible
18 Feb 7.4 02:05:10 10° SW 02:05:20 11° SW 02:05:20 11° SW visible
18 Feb 6.9 23:13:55 10° S 23:16:45 13° SSE 23:19:36 10° SE visible
19 Feb 6.6 01:04:27 10° SW 01:07:58 20° S 01:07:58 20° S visible
20 Feb 6.6 00:03:52 10° SSW 00:08:08 19° S 00:10:36 15° SE visible
20 Feb 7.2 01:55:57 10° SW 01:56:58 13° SW 01:56:58 13° SW visible
20 Feb 6.8 23:03:31 10° SSW 23:07:15 16° SSE 23:11:01 10° SE visible
21 Feb 6.4 00:55:03 10° SW 00:59:35 21° S 00:59:35 21° S visible
21 Feb 6.5 23:54:15 10° SW 23:58:42 21° S 00:02:12 13° SE visible
22 Feb 7.1 01:46:55 10° SW 01:48:34 15° SW 01:48:34 15° SW visible
22 Feb 6.7 22:53:36 10° SW 22:57:49 19° S 23:02:02 10° SE visible
23 Feb 6.5 00:45:48 10° SW 00:50:12 20° S 00:51:12 19° S visible
23 Feb 6.6 23:44:49 10° SW 23:49:17 21° S 23:53:48 10° SE visible
24 Feb 7.0 01:38:09 10° SW 01:40:12 14° SSW 01:40:12 14° SSW visible
25 Feb 6.7 00:36:45 10° SW 00:40:46 18° S 00:42:52 15° SSE visible
25 Feb 6.7 23:35:31 10° SW 23:39:53 20° S 23:44:14 10° SE visible
26 Feb 7.1 01:30:01 10° SW 01:31:54 12° SSW 01:31:54 12° SSW visible
27 Feb 7.0 00:27:58 10° SW 00:31:19 15° SSW 00:34:38 10° SSE visible
27 Feb 6.9 23:26:25 10° SW 23:30:27 18° SSW 23:34:27 10° SSE visible
